weather.gov     
National Weather Service

Regional Weather Roundup
NWS Homepage
This page is being discontinued on March 12, 2014.
The same data is available at this site. Please update your bookmarks.
Thank you, and we apologize for the inconvenience.
Please send an email to SR-SRH.Webmaster@noaa.gov with any concerns.


Current Version
Previous Version:    01  02  03  04  05  06  07  08  09  10  11  12  13  14  15  16  17  18  19  20  21  22  23  24  25  26  
[Printable]
850
ASUS41 KBGM 231710
RWRBGM
RWRBGM
BINGHAMTON REGIONAL WEATHER ROUNDUP
NATIONAL WEATHER SERVICE BINGHAMTON NY
100 PM EDT THU OCT 23 2014

Note: "fair" indicates few or no clouds below 12,000 feet with no
significant weather and/or obstructions to visibility.

* = Station(s) that does not report precipitation, such as rain,
snow, etc, also no thunder or fog.

!NYZ009-015>018-022>025-036-037-044>046-055>057-062-231800
...CENTRAL NEW YORK...

CITY           SKY/WX    TMP DP  RH WIND       PRES   REMARKS
BINGHAMTON     CLOUDY    47  40  76 N18G29    29.88F
CORTLAND       CLOUDY    46  41  81 NW7       29.94F
DANSVILLE      CLOUDY    57  42  57 NW18G28   30.03F
ELMIRA         CLOUDY    53  44  71 N17G26    29.94F
ITHACA         CLOUDY    48  42  80 N13G20    29.96F
HAMILTON       CLOUDY    48  39  71 N9G18     29.91F
MONTICELLO     CLOUDY    46  45  93 N15G21    29.78F
NORWICH        CLOUDY    45  39  81 N8        29.91S
PENN YAN       CLOUDY    52  42  69 NW15G24   29.98F
ROME           CLOUDY    49  41  74 N9        29.93F
SIDNEY         LGT RAIN  45  45 100 N6        29.89S
SYRACUSE       CLOUDY    53  41  63 NW14      29.95F
$$

!PAZ038>040-043-044-047-048-072-231800
...NORTHEAST PENNSYLVANIA...

CITY           SKY/WX    TMP DP  RH WIND       PRES   REMARKS
HAZLETON       DRIZZLE   45  43  93 NW10      29.87S
SCRANTON       CLOUDY    46  42  86 N12G20    29.85F
TOWANDA*       CLOUDY    52  45  76 N10G16    29.92S
$$
&&
KEY
WCI = WIND CHILL INDEX
VSB = VISIBILITY
HX  = HEAT INDEX
$$




U.S. Dept. of Commerce
NOAA National Weather Service
1325 East West Highway
Silver Spring, MD 20910
E-mail: w-nws.webmaster@noaa.gov
Page last modified: May 16, 2007
NATIONAL WEATHER SERVICE: for Safety, for Work, for Fun - FOR LIFE